Location: Epalinges
(46.5518°N, 6.6683°E)
Time: 14:09:10
(UTC+00:00)

NOSS 3-1 (A) - Pass Details

Date: 20 June 2021
Orbit: 729 x 1483 km, 63.4° (Epoch: 23 July)

Event Time Altitude Azimuth Distance (km) Brightness Sun altitude
Exits shadow 00:42:42 26° 232° (SW) 1,560 4.1 -18.4°
Maximum altitude 00:45:52 73° 312° (NW) 913 3.4 -18.2°
Drops below altitude 10° 00:52:14 10° 37° (NE) 2,775 7.0 -17.9°
Sets 00:55:06 0° 40° (NE) 3,850 7.9 -17.7°
